Погода в Кабимасе

Венесуэла     10°26′04″N   71°23′35″W
В апреле 2022 года жителям России запретили посещать сайт meteo.paraplan.net по решению Генеральной прокуратуры. Аудитория сайта уменьшилась в 10 раз. Владельцы сайта не видят смысла в поддержке погодного сервера в таких условиях. Сайт будет закрыт в октябре.
темп.,
°C
ветер,
м/с
пор.,
м/с
влажн.,
%
обл.,
%
осадки,
мм/ч
давл.,
гПа
погр.,
м
4 октября, вт
вт423:00+28ссв6107735 0.0 1010501
02:00+28с458299 0.1 1009350
05:00+26вюв228442 0.6 1009180
08:00+27вюв348418 0.9 1010290
11:00+30ю446815 0.0 10111073
14:00+30ю326817 0.1 1008549
17:00+30с44692 0.0 1006516
20:00+28ссв577696 0.6 1008318
5 октября, ср
ср523:00+28ссв81178100 0.3 1009504
02:00+28ссв688115 0.3 1007408
05:00+27св568035 0.0 1007364
08:00+27вюв2380100 0.0 1010248
11:00+30ююв3467100 0.0 1010776
14:00+31зюз2166100 0.7 1007428
17:00+31ссв4468100 0.6 1006815
20:00+29ссв6874100 0.6 1008552
6 октября, чт
чт623:00+28св7107674 0.0 1009610
02:00+28ссв7980100 0.4 1008451
05:00+26в458591 4.6 1008219
08:00+25в4590100 5.1 1010281
11:00+28ююз3380100 0.4 1011671
14:00+28ююв2277100 3.0 1008341
17:00+28ссв4478100 3.6 1008560
20:00+27с568282 3.6 1009447
7 октября, пт
пт723:00+26ссв578293 2.3 1011448
02:00+26ссв347960 2.4 1009330
05:00+25св1181100 0.6 1009153
08:00+25сз1182100 0.6 1011265
11:00+27сз2272100 0.3 1012648
14:00+28ююв1170100 0.6 1008622
17:00+28св127183 0.0 1007677
20:00+27ссв3383100 0.3 1008366
8 октября, сб
сб823:00+26ссв4687100 2.1 1010290
02:00+25св238869 5.0 1008122
05:00+25с1289100 2.7 1008181
08:00+26ююв018489 2.8 1010275
11:00+28ююз2273100 0.1 1010679
14:00+29юз1169100 0.1 1007617
17:00+29ссз3369100 0.0 1005388
20:00+27ссз798294 2.7 1007443